Powrót do katalogu

USA 335

AktywnyMilitariaVLEO
NORAD 53352·PAYLOAD·🇺🇸 United States

Wystrzelony Aug 4, 2022 z Rocket Lab Launch Complex 1

Loading…

Następne Przeloty (najbliższe 24 godziny)

TLE

NieaktualneSource: Mike McCants

Epoka: Oct 22, 2024, 18:22 UTC

1 53352U 22091A   24296.76552711 0.00066500  00000-0  37376-2 0    07
2 53352  70.0128 158.2452 0003780 231.4901 128.5099 15.13172950    01

Śledź USA 335 w czasie rzeczywistym z AllMySat

Download on the App Store